Regional Weather Roundup
Issued by NWS

Home | Current Version | Previous Version | Graphics & Text | Print | Product List | Glossary On
Versions: 1 2 3 4 5 6 7 8 9 10 11 12 13 14 15 16 17 18 19 20 21 22 23 24 25 26 27 28 29 30 31 32 33 34 35 36 37 38 39 40 41 42 43 44 45 46 47 48 49 50
000
ASUS43 KBIS 272020
RWRND

NORTH DAKOTA REGIONAL WEATHER ROUNDUP
NATIONAL WEATHER SERVICE BISMARCK ND
300 PM CDT MON APR 27 2015

NOTE: "FAIR" INDICATES FEW OR NO CLOUDS BELOW 12,000 FEET WITH NO
SIGNIFICANT WEATHER AND/OR OBSTRUCTIONS TO VISIBILITY.


NDZ001>003-009>011-017-272100-
NORTHWEST NORTH DAKOTA

CITY           SKY/WX    TMP DP  RH WIND       PRES   REMARKS
WILLISTON      PTSUNNY   54  41  61 VRB6      30.30F
MINOT          CLOUDY    48  41  76 NW7       30.29S
MINOT AFB      CLOUDY    48  47  99 NW12      30.28S
$$

NDZ018>021-031>035-040>046-272100-
SOUTHWEST NORTH DAKOTA

CITY           SKY/WX    TMP DP  RH WIND       PRES   REMARKS
BISMARCK       CLOUDY    50  40  68 N12       30.31R
DICKINSON      CLOUDY    46  38  73 NW8       30.29S
GARRISON         N/A     48  42  80 NW7       30.29S
HETTINGER ARPT CLOUDY    46  39  76 NW7       30.32F
$$

NDZ004>008-012>016-024-026-027-054-272100-
NORTHEAST NORTH DAKOTA

CITY           SKY/WX    TMP DP  RH WIND       PRES   REMARKS
GRAND FORKS    CLOUDY    67  41  38 VRB6      30.18F
GRND FRKS AFB  CLOUDY    67  43  41 NE8       30.18F
DEVILS LAKE    CLOUDY    50  39  66 N15       30.25S
$$

NDZ022-023-025-028>030-036>039-047>053-272100-
SOUTHEAST NORTH DAKOTA

CITY           SKY/WX    TMP DP  RH WIND       PRES   REMARKS
FARGO          MOSUNNY   71  24  17 VRB5      30.17F
JAMESTOWN      PTSUNNY   66  39  37 NW15      30.19S
$$




USA.gov is the U.S. government's official web portal to all federal, state and local government web resources and services.